GW4545 Weather Reports


time (UTC)temp
F
wind
direction
speed
knots
gust
knots
rain 1hr
in
rain 24hr
in
rain mn
in
humidity
%
barometer
mb
20260507180053 57 188 0.0 4.3 0.00 0.00 0.00 61 1021.9
20260507174548 57 55 0.9 4.3 0.00 0.00 0.00 62 1021.9
20260507173058 56 46 0.0 7.0 0.00 0.00 0.00 65 1022.1
20260507171552 56 11 2.6 6.1 0.00 0.00 0.00 69 1022.1
20260507170051 55 90 0.9 7.0 0.00 0.00 0.00 67 1022.0
20260507164542 54 33 1.7 5.2 0.00 0.00 0.00 68 1022.1
20260507163047 52 25 2.6 6.1 0.00 0.00 0.00 72 1022.1
20260507161553 52 26 2.6 7.8 0.00 0.00 0.00 74 1022.1
20260507160051 51 24 1.7 5.2 0.00 0.00 0.00 74 1022.0
20260507154547 50 339 3.5 8.7 0.00 0.00 0.00 73 1022.2
20260507153047 50 5 0.9 7.0 0.00 0.00 0.00 76 1022.3
20260507151541 49 352 3.5 7.8 0.00 0.00 0.00 76 1022.2
20260507150043 49 15 1.7 4.3 0.00 0.00 0.00 78 1022.2
20260507144549 48 306 0.9 7.0 0.00 0.00 0.00 79 1022.1
20260507143100 48 311 1.7 6.1 0.00 0.00 0.00 80 1022.1
20260507141549 47 289 1.7 6.1 0.00 0.00 0.00 80 1022.0
20260507140046 47 313 2.6 7.0 0.00 0.00 0.00 81 1022.0
20260507134543 47 293 1.7 6.1 0.00 0.00 0.00 80 1021.9
20260507133051 47 328 1.7 3.5 0.00 0.00 0.00 81 1021.7
20260507131550 47 307 0.0 3.5 0.00 0.00 0.00 81 1021.7
20260507130100 47 0 0.9 3.5 0.00 0.00 0.00 81 1021.7
20260507124555 47 0 0.0 2.6 0.00 0.00 0.00 82 1021.5
20260507123046 47 24 0.9 2.6 0.00 0.00 0.00 80 1021.6
20260507121546 48 345 1.7 4.3 0.00 0.00 0.00 79 1021.7
20260507120042 48 347 0.0 6.1 0.00 0.00 0.00 79 1021.8
20260507114548 49 22 2.6 7.8 0.00 0.00 0.00 78 1022.0
20260507113055 49 350 1.7 7.8 0.00 0.00 0.00 78 1022.0
20260507111544 49 324 1.7 5.2 0.00 0.00 0.00 77 1022.0
20260507110057 50 352 1.7 7.8 0.00 0.00 0.00 78 1022.1
20260507104552 50 9 1.7 5.2 0.00 0.00 0.00 77 1022.1
20260507103114 50 13 0.9 7.0 0.00 0.00 0.00 77 1022.2
20260507101547 50 0 0.9 4.3 0.00 0.00 0.00 77 1022.4
20260507100106 50 360 0.9 5.2 0.00 0.00 0.00 79 1022.4
20260507094549 51 5 2.6 6.1 0.00 0.00 0.00 78 1022.5
20260507093045 51 350 1.7 4.3 0.00 0.00 0.00 78 1022.5
20260507091545 51 346 1.7 6.1 0.00 0.00 0.00 78 1022.6
20260507090048 51 332 1.7 6.1 0.00 0.00 0.00 78 1022.8
20260507084546 51 327 1.7 5.2 0.00 0.00 0.00 77 1022.8
20260507083050 51 352 1.7 7.0 0.00 0.00 0.00 77 1022.8
20260507081552 51 352 1.7 6.1 0.00 0.00 0.00 78 1022.8
20260507080054 51 5 1.7 6.1 0.00 0.00 0.00 78 1022.8
20260507074552 51 294 2.6 7.0 0.00 0.00 0.00 79 1022.7
20260507073044 51 5 1.7 5.2 0.00 0.00 0.00 79 1022.6
20260507071549 51 5 1.7 3.5 0.00 0.00 0.00 80 1022.5
20260507064551 51 35 1.7 7.0 0.00 0.00 0.00 81 1022.5
20260507063047 51 21 1.7 3.5 0.00 0.00 0.00 83 1022.4
20260507061542 51 0 1.7 7.8 0.00 0.00 0.00 82 1022.4
20260507060043 52 352 2.6 7.0 0.00 0.00 0.00 82 1022.6
20260507054605 52 331 2.6 7.8 0.00 0.00 0.00 82 1022.6
20260507053054 52 336 2.6 7.0 0.00 0.00 0.00 81 1022.5
20260507051554 52 46 3.5 7.8 0.00 0.00 0.00 81 1022.5
20260507050050 53 348 0.9 5.2 0.00 0.00 0.00 81 1022.3
20260507044551 54 345 2.6 7.0 0.00 0.00 0.00 80 1022.4
20260507043045 55 352 0.9 4.3 0.00 0.00 0.00 79 1022.5
20260507041558 55 304 1.7 6.1 0.00 0.00 0.00 79 1022.5
20260507040043 56 311 1.7 9.6 0.00 0.00 0.00 78 1022.2
20260507034546 56 0 1.7 7.0 0.00 0.00 0.00 77 1022.0
20260507033043 56 350 0.9 3.5 0.00 0.00 0.00 77 1021.9
20260507031543 57 352 0.9 5.2 0.00 0.00 0.00 76 1021.7
20260507030050 58 309 1.7 7.8 0.00 0.00 0.00 75 1021.6
20260507024551 59 297 2.6 5.2 0.00 0.00 0.00 73 1021.4
20260507023047 61 352 0.9 7.0 0.00 0.00 0.00 72 1021.4
20260507021559 62 289 0.9 5.2 0.00 0.00 0.00 70 1021.4
20260507020106 62 285 2.6 7.8 0.00 0.00 0.00 69 1021.4
20260507014618 64 298 3.5 7.8 0.00 0.00 0.00 66 1021.4
20260507013050 64 293 2.6 7.8 0.00 0.00 0.00 67 1021.4
20260507011549 65 318 2.6 7.8 0.00 0.00 0.00 66 1021.5
20260507010045 66 149 2.6 7.8 0.00 0.00 0.00 66 1021.5
20260507004543 67 331 1.7 7.0 0.00 0.00 0.00 69 1021.5
20260507003043 66 5 3.5 9.6 0.00 0.00 0.00 68 1021.4
20260507001557 67 292 1.7 9.6 0.00 0.00 0.00 66 1021.2
20260507000054 67 22 3.5 7.8 0.00 0.00 0.00 66 1021.2
20260506234601 68 340 4.3 7.0 0.00 0.00 0.00 63 1021.3
20260506233050 67 9 1.7 7.0 0.00 0.00 0.00 69 1021.3
20260506231547 66 25 1.7 7.0 0.00 0.00 0.00 70 1021.4
20260506230054 66 19 1.7 4.3 0.00 0.00 0.00 71 1021.4
20260506224552 66 39 1.7 4.3 0.00 0.00 0.00 69 1021.5
20260506223040 66 23 0.9 5.2 0.00 0.00 0.00 72 1021.7
20260506221559 67 28 0.9 3.5 0.00 0.00 0.00 73 1021.5
20260506220049 66 0 0.9 3.5 0.00 0.00 0.00 71 1021.5
20260506214547 66 91 0.0 6.1 0.00 0.00 0.00 74 1021.6
20260506213055 67 42 1.7 3.5 0.00 0.00 0.00 71 1021.6
20260506211553 66 82 2.6 6.1 0.00 0.00 0.00 72 1021.7
20260506210051 66 0 0.9 5.2 0.00 0.00 0.00 73 1021.8
20260506204548 67 352 1.7 7.0 0.00 0.00 0.00 71 1021.6
20260506203048 65 316 2.6 7.8 0.00 0.00 0.00 75 1021.8
20260506201550 64 352 0.9 4.3 0.00 0.00 0.00 76 1021.9
20260506200046 65 71 1.7 5.2 0.00 0.00 0.00 73 1021.8
20260506194550 65 107 1.7 4.3 0.00 0.00 0.00 74 1021.8
20260506193050 63 0 1.7 6.1 0.00 0.00 0.00 75 1022.0
20260506191542 63 125 1.7 7.8 0.00 0.00 0.00 78 1022.1
20260506190050 62 130 1.7 5.2 0.00 0.00 0.00 79 1022.0
20260506184546 62 49 1.7 4.3 0.00 0.00 0.00 78 1022.0
20260506183042 62 36 0.9 7.8 0.00 0.00 0.00 80 1022.0
20260506181556 62 62 1.7 5.2 0.00 0.00 0.00 76 1022.0